K2BIG Weather Reports


time (UTC)temp
F
wind
direction
speed
knots
gust
knots
rain 1hr
in
rain 24hr
in
rain mn
in
humidity
%
barometer
mb
20260503024516 46 0.0 0.0 0.00 0.10 0.10 64 1011.7
20260503024016 46 0.0 0.0 0.00 0.10 0.10 64 1011.8
20260503023516 46 0.0 0.9 0.00 0.10 0.10 61 1011.8
20260503023016 46 0.0 0.9 0.00 0.10 0.10 58 1011.9
20260503022516 46 0.0 0.0 0.00 0.10 0.10 58 1011.8
20260503022016 47 0.0 0.0 0.00 0.10 0.10 59 1011.9
20260503021516 47 0.0 0.0 0.00 0.10 0.10 64 1011.9
20260503021016 47 0.0 0.9 0.00 0.10 0.10 60 1011.9
20260503020516 47 0.0 1.7 0.00 0.10 0.10 56 1011.9
20260503020016 47 293 0.9 1.7 0.00 0.10 0.10 55 1011.8
20260503015516 47 293 0.9 2.6 0.00 0.10 0.10 56 1011.8
20260503015016 47 293 0.9 2.6 0.00 0.10 0.10 57 1011.7
20260503014516 47 293 0.9 1.7 0.00 0.10 0.10 60 1011.8
20260503014016 47 0.0 0.9 0.00 0.10 0.10 64 1011.7
20260503013516 47 0.0 0.0 0.00 0.10 0.10 66 1011.6
20260503013016 47 0.0 1.7 0.00 0.10 0.10 64 1011.6
20260503012516 47 0.0 0.0 0.00 0.10 0.10 59 1011.6
20260503012016 48 0.0 0.0 0.00 0.10 0.10 59 1011.5
20260503011516 48 0.0 0.0 0.00 0.10 0.10 59 1011.6
20260503011016 48 0.0 0.0 0.00 0.10 0.10 60 1011.5
20260503010516 48 0.0 0.0 0.00 0.10 0.10 58 1011.5
20260503010016 49 0.0 0.0 0.00 0.10 0.10 56 1011.4
20260503005516 49 0.0 0.0 0.00 0.10 0.10 60 1011.3
20260503005016 49 0.0 0.0 0.00 0.10 0.10 54 1011.2
20260503004516 50 0.0 0.0 0.00 0.10 0.10 54 1011.2
20260503004016 50 0.0 0.0 0.00 0.10 0.10 53 1011.2
20260503003516 50 0.0 0.0 0.00 0.10 0.10 52 1011.2
20260503003016 51 0.0 0.0 0.00 0.10 0.10 55 1011.1
20260503002516 51 0.0 0.0 0.00 0.10 0.10 53 1011.1
20260503002016 51 0.0 0.0 0.00 0.10 0.10 50 1011.0
20260503001516 52 0.0 0.0 0.00 0.10 0.10 51 1011.1
20260503001016 52 0.0 1.7 0.00 0.10 0.10 49 1011.0
20260503000516 52 0.0 1.7 0.00 0.10 0.10 49 1010.9
20260503000015 52 293 1.7 2.6 0.00 0.10 0.10 46 1010.9
20260502235516 53 293 1.7 4.3 0.00 0.10 0.10 45 1011.0
20260502235016 53 293 1.7 6.1 0.00 0.10 0.10 45 1010.9
20260502234516 53 293 0.9 2.6 0.00 0.10 0.10 45 1010.9
20260502234015 54 293 0.9 3.5 0.00 0.10 0.10 45 1010.9
20260502233515 54 293 0.9 2.6 0.00 0.10 0.10 44 1010.9
20260502233015 54 315 1.7 6.1 0.00 0.10 0.10 44 1010.8
20260502232515 54 315 1.7 4.3 0.00 0.10 0.10 44 1010.7
20260502232015 54 293 1.7 4.3 0.00 0.10 0.10 44 1010.7
20260502231515 54 248 1.7 4.3 0.00 0.10 0.10 44 1010.8
20260502231016 55 270 1.7 7.0 0.00 0.10 0.10 43 1010.7
20260502230516 55 293 1.7 4.3 0.00 0.10 0.10 43 1010.6
20260502230016 55 270 1.7 5.2 0.00 0.10 0.10 42 1010.7
20260502225515 56 270 3.5 8.7 0.00 0.10 0.10 41 1010.6
20260502225016 56 293 5.2 8.7 0.00 0.10 0.10 41 1010.6
20260502224515 56 293 2.6 7.8 0.00 0.10 0.10 41 1010.6
20260502224015 57 293 3.5 6.1 0.00 0.10 0.10 40 1010.5
20260502223515 57 270 4.3 10.4 0.00 0.10 0.10 40 1010.5
20260502223015 57 293 3.5 8.7 0.00 0.10 0.10 41 1010.5
20260502222515 57 270 3.5 8.7 0.00 0.10 0.10 42 1010.4
20260502222015 57 315 5.2 10.4 0.00 0.10 0.10 40 1010.4
20260502221515 57 315 3.5 7.0 0.00 0.10 0.10 42 1010.3
20260502221015 57 315 0.9 3.5 0.00 0.10 0.10 42 1010.2
20260502220515 57 315 1.7 3.5 0.00 0.10 0.10 46 1010.2
20260502220015 57 315 1.7 3.5 0.00 0.10 0.10 42 1010.3
20260502215515 57 315 2.6 8.7 0.00 0.10 0.10 43 1010.3
20260502215015 57 315 2.6 7.0 0.00 0.10 0.10 42 1010.2
20260502214516 57 315 3.5 6.1 0.00 0.10 0.10 41 1010.2
20260502214015 58 293 3.5 8.7 0.00 0.10 0.10 40 1010.2
20260502213515 58 338 2.6 4.3 0.00 0.10 0.10 40 1010.1
20260502213015 58 315 2.6 7.0 0.00 0.10 0.10 39 1010.0
20260502212515 59 270 0.9 3.5 0.00 0.10 0.10 39 1010.0
20260502212015 59 270 1.7 4.3 0.00 0.10 0.10 38 1009.9
20260502211515 60 293 2.6 6.1 0.00 0.10 0.10 37 1009.9
20260502211015 60 315 2.6 7.8 0.00 0.10 0.10 38 1009.8
20260502210515 60 270 3.5 9.6 0.00 0.10 0.10 38 1009.9
20260502210015 60 270 1.7 7.0 0.00 0.10 0.10 40 1009.9
20260502205515 60 248 2.6 6.1 0.00 0.10 0.10 40 1009.8
20260502205015 61 270 2.6 6.1 0.00 0.10 0.10 42 1009.8
20260502204515 61 270 2.6 8.7 0.00 0.10 0.10 38 1009.8
20260502204015 62 270 3.5 8.7 0.00 0.10 0.10 37 1009.8
20260502203515 63 293 3.5 8.7 0.00 0.10 0.10 34 1009.8
20260502203015 63 315 2.6 8.7 0.00 0.10 0.10 37 1009.9
20260502202515 62 248 3.5 7.0 0.00 0.10 0.10 38 1009.9
20260502202015 62 248 3.5 7.8 0.00 0.10 0.10 43 1009.9
20260502201515 61 270 2.6 7.0 0.00 0.10 0.10 40 1010.0
20260502201015 61 338 1.7 3.5 0.00 0.10 0.10 39 1010.1
20260502200515 61 338 2.6 8.7 0.00 0.10 0.10 39 1010.0
20260502200015 61 270 2.6 7.0 0.00 0.10 0.10 41 1010.1
20260502195515 60 248 3.5 7.8 0.00 0.10 0.10 41 1010.1
20260502195015 61 293 1.7 6.1 0.00 0.10 0.10 42 1010.2
20260502194515 61 293 1.7 4.3 0.00 0.10 0.10 40 1010.3
20260502194015 61 315 2.6 6.1 0.00 0.10 0.10 39 1010.3
20260502193515 61 270 2.6 7.0 0.00 0.10 0.10 40 1010.3
20260502193015 61 293 1.7 4.3 0.00 0.10 0.10 40 1010.4
20260502192515 61 315 1.7 2.6 0.00 0.10 0.10 41 1010.5
20260502192015 61 315 1.7 5.2 0.00 0.10 0.10 38 1010.5
20260502191515 61 270 3.5 7.0 0.00 0.10 0.10 38 1010.6
20260502191015 61 248 2.6 7.0 0.00 0.10 0.10 44 1010.6
20260502190515 60 248 4.3 8.7 0.00 0.10 0.10 41 1010.6
20260502190015 60 248 1.7 5.2 0.00 0.10 0.10 40 1010.7
20260502185515 61 225 2.6 8.7 0.00 0.10 0.10 37 1010.8
20260502185015 62 225 2.6 5.2 0.00 0.10 0.10 40 1010.8
20260502184515 62 270 1.7 6.1 0.00 0.10 0.10 36 1010.8
20260502184015 62 270 1.7 6.1 0.00 0.10 0.10 39 1010.9
20260502183515 62 248 2.6 6.1 0.00 0.10 0.10 41 1010.9
20260502183015 62 225 3.5 6.1 0.00 0.10 0.10 46 1011.0
20260502182515 62 293 1.7 4.3 0.00 0.10 0.10 45 1011.0
20260502182015 62 315 1.7 3.5 0.00 0.10 0.10 40 1011.0
20260502181515 63 315 2.6 6.1 0.00 0.10 0.10 42 1011.0
20260502181015 63 293 2.6 6.1 0.00 0.10 0.10 44 1010.8
20260502180515 62 315 2.6 8.7 0.00 0.10 0.10 40 1010.8
20260502170517 61 293 0.9 2.6 0.00 0.10 0.10 53 1011.5
20260502164017 58 225 2.6 6.1 0.00 0.10 0.10 57 1011.5
20260502163517 57 315 2.6 7.0 0.00 0.10 0.10 49 1011.6
20260502163017 56 293 2.6 7.0 0.00 0.10 0.10 56 1011.7
20260502162517 57 23 0.9 2.6 0.00 0.10 0.10 57 1011.8
20260502162017 58 23 0.9 2.6 0.00 0.10 0.10 64 1011.8
20260502161517 58 23 1.7 7.0 0.00 0.10 0.10 60 1011.9
20260502161017 59 293 4.3 9.6 0.00 0.10 0.10 56 1011.8
20260502160517 59 293 2.6 6.1 0.00 0.10 0.10 60 1011.9
20260502152017 57 315 2.6 7.0 0.00 0.10 0.10 68 1012.1
20260502151516 56 293 2.6 6.1 0.00 0.10 0.10 66 1012.1
20260502151017 55 270 2.6 7.0 0.00 0.10 0.10 70 1012.0
20260502150516 55 270 2.6 7.0 0.00 0.10 0.10 70 1012.2
20260502130516 48 270 1.7 3.5 0.00 0.10 0.10 90 1012.4
20260502123516 48 293 2.6 7.0 0.00 0.10 0.10 95 1012.0
20260502123016 48 293 2.6 7.0 0.00 0.10 0.10 95 1012.0
20260502122516 48 248 2.6 5.2 0.00 0.10 0.10 96 1012.0
20260502122016 48 248 2.6 6.1 0.00 0.10 0.10 96 1012.0
20260502121516 48 248 1.7 3.5 0.00 0.10 0.10 97 1011.9
20260502121016 48 225 0.9 2.6 0.00 0.10 0.10 97 1011.9
20260502120516 48 225 0.9 1.7 0.00 0.10 0.10 97 1011.9
20260502115516 47 0.0 1.7 0.00 0.10 0.10 97 1012.0
20260502115016 47 0.0 2.6 0.00 0.10 0.10 96 1012.1
20260502114516 47 225 0.9 1.7 0.00 0.10 0.10 96 1012.1
20260502114016 47 225 0.9 2.6 0.00 0.10 0.10 97 1012.2
20260502113516 47 225 0.9 2.6 0.00 0.10 0.10 97 1012.0
20260502113016 47 0.0 2.6 0.00 0.10 0.10 97 1012.0
20260502112516 47 248 0.9 3.5 0.00 0.10 0.10 97 1012.1
20260502112016 47 0.0 1.7 0.00 0.10 0.10 97 1012.0
20260502111516 46 0.0 0.0 0.00 0.10 0.10 96 1011.9
20260502111017 46 0.0 0.0 0.00 0.10 0.10 96 1012.0
20260502110516 46 0.0 0.0 0.00 0.10 0.10 96 1011.8
20260502110016 46 0.0 0.0 0.00 0.10 0.10 96 1011.7
20260502105516 45 0.0 0.0 0.00 0.10 0.10 96 1011.7
20260502105016 45 0.0 0.0 0.00 0.10 0.10 96 1011.6
20260502104516 45 0.0 0.0 0.00 0.10 0.10 96 1011.4
20260502104016 45 0.0 0.0 0.00 0.10 0.10 96 1011.5
20260502103516 45 0.0 0.0 0.00 0.10 0.10 96 1011.4
20260502103016 45 0.0 0.0 0.00 0.10 0.10 95 1011.3
20260502102516 45 0.0 0.0 0.00 0.10 0.10 95 1011.4
20260502102016 45 0.0 0.0 0.00 0.10 0.10 95 1011.4
20260502101516 45 0.0 0.0 0.00 0.10 0.10 95 1011.5
20260502101016 45 0.0 0.0 0.00 0.10 0.10 95 1011.5
20260502100516 46 0.0 0.0 0.00 0.10 0.10 95 1011.4
20260502091516 46 0.0 0.0 0.05 0.10 0.10 95 1011.2
20260502091016 46 0.0 0.0 0.06 0.10 0.10 95 1011.0
20260502090516 47 0.0 0.0 0.07 0.10 0.10 95 1011.0
20260502071515 47 0.0 0.0 0.01 0.02 0.02 93 1011.7
20260502071016 47 0.0 0.0 0.02 0.02 0.02 93 1011.7
20260502070516 47 0.0 0.9 0.02 0.02 0.02 93 1011.8
20260502070017 47 0.0 0.0 0.02 0.02 0.02 93 1011.9
20260502065515 48 0.0 0.0 0.02 0.02 0.02 92 1011.9
20260502065016 48 0.0 0.0 0.02 0.02 0.02 92 1011.9
20260502064516 48 0.0 0.0 0.02 0.02 0.02 92 1011.9
20260502064016 48 0.0 0.0 0.02 0.02 0.02 92 1012.0
20260502063516 48 0.0 0.0 0.02 0.02 0.02 91 1012.1
20260502063016 48 0.0 2.6 0.02 0.02 0.02 91 1012.2
20260502062516 48 0.0 1.7 0.02 0.02 0.02 91 1012.1
20260502062015 48 0.0 0.0 0.02 0.02 0.02 91 1012.0
20260502061515 48 248 0.9 3.5 0.01 0.01 0.01 90 1012.1
20260502061015 48 225 0.9 3.5 0.00 0.00 0.00 91 1012.4
20260502060516 49 203 0.9 2.6 0.00 0.00 0.00 91 1012.4
20260502060015 49 180 0.9 3.5 0.00 0.00 0.00 91 1012.3
20260502055516 49 180 0.9 2.6 0.00 0.00 0.00 91 1012.2
20260502055015 49 0.0 0.0 0.00 0.00 0.00 90 1011.9
20260502054515 49 0.0 0.0 0.00 0.00 0.00 90 1011.9
20260502054015 49 0.0 0.0 0.00 0.00 0.00 89 1011.8
20260502053515 49 0.0 0.0 0.00 0.00 0.00 89 1011.8
20260502053015 49 0.0 0.0 0.00 0.00 0.00 87 1011.8
20260502052516 49 0.0 0.0 0.00 0.00 0.00 86 1012.0
20260502052015 50 0.0 0.0 0.00 0.00 0.00 85 1012.0
20260502051515 50 180 0.9 2.6 0.00 0.00 0.00 85 1012.1
20260502051016 50 180 1.7 4.3 0.00 0.00 0.00 85 1012.2
20260502050516 50 0.0 1.7 0.00 0.00 0.00 86 1012.0
20260502050015 50 0.0 1.7 0.00 0.00 0.00 86 1011.8
20260502045515 50 0.0 0.0 0.00 0.00 0.00 86 1011.9
20260502045015 50 0.0 0.0 0.00 0.00 0.00 85 1011.8
20260502044515 50 0.0 0.9 0.00 0.00 0.00 84 1011.6
20260502044015 50 0.0 0.0 0.00 0.00 0.00 84 1011.6
20260502043515 50 203 0.9 1.7 0.00 0.00 0.00 84 1011.7
20260502043015 50 0.0 0.0 0.00 0.00 0.00 83 1011.4
20260502042515 50 203 0.9 1.7 0.00 0.00 0.00 83 1011.3
20260502042015 50 0.0 1.7 0.00 0.00 0.00 84 1011.6
20260502041515 50 0.0 0.0 0.00 0.00 0.00 84 1011.8
20260502041015 50 0.0 0.0 0.00 0.00 0.00 83 1011.5
20260502040515 50 0.0 0.0 0.00 0.00 0.00 83 1011.7
20260502040015 50 0.0 0.0 0.00 0.00 0.00 83 1011.6
20260502035516 50 0.0 0.9 0.00 0.00 0.00 83 1011.6
20260502035016 50 0.0 0.0 0.00 0.00 0.00 83 1011.7
20260502034516 50 0.0 0.0 0.00 0.00 0.00 83 1011.7
20260502034016 50 0.0 0.9 0.00 0.00 0.00 83 1011.6
20260502033516 50 0.0 0.9 0.00 0.00 0.00 82 1011.6
20260502033016 50 0.0 0.0 0.00 0.00 0.00 83 1011.6
20260502032516 50 0.0 0.0 0.00 0.00 0.00 82 1011.7
20260502032016 50 0.0 0.9 0.00 0.00 0.00 82 1011.7
20260502031516 50 0.0 0.0 0.00 0.00 0.00 82 1011.6
20260502031016 50 0.0 0.0 0.00 0.00 0.00 82 1011.5
20260502030516 50 0.0 0.0 0.00 0.00 0.00 82 1011.6
20260502030016 50 0.0 0.0 0.00 0.00 0.00 82 1011.6
20260502025516 50 0.0 0.0 0.00 0.00 0.00 80 1011.8
20260502025016 50 0.0 0.0 0.00 0.00 0.00 80 1011.8